Regional Weather Roundup
Issued by NWS

Home | Current Version | Previous Version | Graphics & Text | Print | Product List | Glossary On
Versions: 1 2 3 4 5 6 7 8 9 10 11 12 13 14 15 16 17 18 19 20 21 22 23 24 25 26 27 28 29 30 31 32 33 34 35 36 37 38 39 40 41 42 43 44 45 46 47 48 49 50
402
ASUS45 KBOU 010007
RWRCO

WEATHER ROUNDUP FOR COLORADO
NATIONAL WEATHER SERVICE DENVER/BOULDER CO
600 PM MDT SAT APR 30 2016

NOTE: "FAIR" INDICATES FEW OR NO CLOUDS BELOW 12000 FEET WITH NO
SIGNIFICANT WEATHER AND/OR OBSTRUCTIONS TO VISIBILITY.

COZ001>005-013-030-031-010100-
...NORTHWEST COLORADO...

CITY           SKY/WX    TMP DP  RH WIND       PRES   REMARKS
CRAIG          PTSUNNY   47  23  38 E14       29.99R
HAYDEN         FAIR      41  19  42 E16G23    30.00R
MEEKER         FAIR      45  29  53 NE13G26   29.96R
MOUNT WERNER   NOT AVBL
STEAMBOAT SPGS CLOUDY    37  20  49 NE8       30.01R
WALDEN         FAIR      32  19  59 N16G22    30.07R WCI  21
$$

COZ006>008-011-010100-
...WEST CENTRAL VALLEYS...

CITY           SKY/WX    TMP DP  RH WIND       PRES   REMARKS
GRAND JUNCTION CLOUDY    53  31  42 N13       29.88R
MONTROSE       FAIR      53  27  36 NW8       29.88S
EAGLE          CLOUDY    43  36  75 CALM      29.98R
RIFLE          PTSUNNY   50  32  50 NW7       29.92R
DELTA          NOT AVBL
NUCLA          NOT AVBL
$$

COZ017>023-064>068-010100-
...SOUTHWEST COLORADO...

CITY           SKY/WX    TMP DP  RH WIND       PRES   REMARKS
DURANGO        CLOUDY    49  31  49 VRB5      29.85R
CORTEZ         CLOUDY    52  37  56 S10       29.85R
PAGOSA SPRINGS CLOUDY    49  28  45 CALM      29.89R
TELLURIDE      CLOUDY    42  26  53 NW3       29.93S
WOLF CREEK PAS CLOUDY    27  23  86 SW20      30.01S WCI  13
$$

COZ009-010-012-014-032>034-037-058>063-010100-
...CENTRAL COLORADO...

CITY           SKY/WX    TMP DP  RH WIND       PRES   REMARKS
ASPEN          CLOUDY    42  27  55 NW7       29.93R
BUENA VISTA    LGT SNOW  32  28  87 NE8       30.00R VSB 3/4 WCI  25
COPPER MTN     NOT AVBL
BERTHOUD PASS  SNOW      12   3  67 E10G25    30.03R VSB<1/4 WCI  -1
COTTONWOOD PAS SNOW      30  28  93 E9        30.00R VSB<1/4 WCI  22
GUNNISON       PTSUNNY   48  23  37 SW8G31    29.90R
KREMMLING      CLOUDY    36  25  64 NW12      30.02R
LEADVILLE      LGT SNOW  29  25  85 N5        29.96R FOG     WCI  24
SALIDA         CLOUDY    34  33  95 E12       30.06R WCI  25
SUNLIGHT       FOG      N/A N/A N/A N3        30.04R VSB<1/4
WILKERSON PASS LGT SNOW  19  16  86 NE14G22   30.02R VSB 1   WCI   6
$$

COZ069>075-010100-
...SAN LUIS VALLEY/SANGRE DE CRISTO MOUNTAINS...

CITY           SKY/WX    TMP DP  RH WIND       PRES   REMARKS
ALAMOSA        PTSUNNY   45  36  70 E9        29.88R
LA VETA PASS   SNOW      23  21  93 MISG      29.99S VSB 1/4
SAGUACHE       PTSUNNY   50  27  40 SE10      29.89R
$$

COZ035-036-038>040-010100-
...NORTHERN COLORADO FRONT RANGE...

CITY           SKY/WX    TMP DP  RH WIND       PRES   REMARKS
DENVER INTL AP LGT SNOW  34  30  85 N20       30.08R FOG     WCI  23
DMNS CITY PARK   N/A     35  33  91 N12G17    30.11R WCI  27
AURORA         LGT RAIN  33  33 100 N17G25    30.09R WCI  22
FRONT RANGE AP LGT SNOW  32  32 100 N21       30.08  VSB 1   WCI  20
ERIE MUNI ARPT CLOUDY    38  34  86 N16G22    30.11R
BOULDER MUN AP CLOUDY    37  32  81 N13       30.11R
CENTENNIAL     LGT SNOW  32  32 100 N17       30.08R VSB 1   WCI  21
BROOMFIELD     LGT SNOW  36  34  93 N20G25    30.10R VSB 1
FORT COLLINS   PTSUNNY   36  34  93 NW13      30.12R
LONGMONT       PTSUNNY   40  33  74 N14G23    30.13R HAZE
$$

COZ041-046-047-076>085-087-088-010100-
...PIKES PEAK/PALMER DIVIDE AND SOUTHERN FOOTHILLS...

CITY           SKY/WX    TMP DP  RH WIND       PRES   REMARKS
COLO. SPRINGS  LGT SNOW  35  27  72 NW24G31   30.04R WCI  23
A. F. ACADEMY  LGT SNOW  32  28  86 N21       30.03R FOG     WCI  20
SCHRIEVER AFB  NOT AVBL
ELLICOTT       NOT AVBL
FALCON         PTSUNNY   32  26  77 N23G31    30.02R WCI  19
FORT CARSON    PTSUNNY   39  27  60 N32       30.00R
LIMON          LGT SNOW  31  30  96 N25       30.01R FOG     WCI  17
MONUMENT HILL  SNOW      28  27  93 N21G35    30.06R VSB 1/2 WCI  15
TRINIDAD       CLOUDY    38  30  73 N8        30.03R
$$

COZ042>045-048>051-090-091-010100-
...NORTHEAST COLORADO...

CITY           SKY/WX    TMP DP  RH WIND       PRES   REMARKS
GREELEY ARPT   CLOUDY    37  34  87 N17       30.11R
AKRON          LGT SNOW  32  30  92 N25       30.01R VSB 3/4 WCI  19
BURLINGTON     CLOUDY    36  31  82 N20G31    29.94R
WRAY           NOT AVBL
STERLING       LGT RAIN  34  34 100 N17G23    30.03R WCI  23
HOLYOKE        NOT AVBL
FORT MORGAN    LGT RAIN  35  33  93 NW15      30.07R WCI  25
$$

COZ086-089-092>099-010100-
...SOUTHEAST COLORADO...

CITY           SKY/WX    TMP DP  RH WIND       PRES   REMARKS
PUEBLO         CLOUDY    45  28  51 N26G33    30.01R
LA JUNTA       PTSUNNY   45  31  58 N26G33    30.02R
LAMAR          PTSUNNY   47  31  53 NW22G31   29.96R
SPRINGFIELD      N/A     44  31  60 NW25G33   29.96R
$$




USA.gov is the U.S. government's official web portal to all federal, state and local government web resources and services.